Location: Althorst
(53.6379°N, 10.7715°E)
Time: 17:42:06
(UTC+00:00)

Radarsat Rocket - Pass Details

Date: 10 December 2019
Orbit: 933 x 1492 km, 100.6° (Epoch: 28 January)

Event Time Altitude Azimuth Distance (km) Brightness Sun altitude
Rises 15:51:59 0° 162° (SSE) 3,750 7.2 -7.6°
Reaches altitude 10° 15:54:31 10° 163° (SSE) 2,750 6.5 -7.9°
Maximum altitude 16:00:35 82° 251° (WSW) 963 4.1 -8.7°
Drops below altitude 10° 16:06:26 10° 340° (NNW) 2,657 6.2 -9.5°
Sets 16:08:51 0° 341° (NNW) 3,615 6.9 -9.8°
